This is the latest recevied weather packets stored in our database for station/object SR2CPA-13. If no packets are shown the sender has not sent any weather packets the latest 10 day(s).
| Time | Temp. | Humidity | Pressure | Rain* | Wind** | Luminosity | Snow |
|---|---|---|---|---|---|---|---|
| 1778253024 | 13.33° C | 61% | 0 hPa | 0 mm | - | - | - |
| 1778252404 | 13.33° C | 61% | 0 hPa | 0 mm | - | - | - |
| 1778251806 | 13.33° C | 60% | 0 hPa | 0 mm | - | - | - |
| 1778251204 | 13.89° C | 59% | 0 hPa | 0 mm | - | - | - |
| 1778250584 | 13.89° C | 58% | 0 hPa | 0 mm | - | - | - |
| 1778249984 | 15° C | 54% | 0 hPa | 0 mm | - | - | - |
| 1778249384 | 15° C | 53% | 0 hPa | 0 mm | - | - | - |
| 1778248764 | 14.44° C | 53% | 0 hPa | 0 mm | - | - | - |
| 1778248144 | 15° C | 53% | 0 hPa | 0 mm | - | - | - |
| 1778247544 | 14.44° C | 53% | 0 hPa | 0 mm | - | - | - |
| 1778246924 | 15° C | 52% | 0 hPa | 0 mm | - | - | - |
| 1778246324 | 15° C | 50% | 0 hPa | 0 mm | - | - | - |
| 1778245724 | 15° C | 52% | 0 hPa | 0 mm | - | - | - |
| 1778245124 | 15.56° C | 49% | 0 hPa | 0 mm | - | - | - |
| 1778244524 | 15.56° C | 49% | 0 hPa | 0 mm | - | - | - |
| 1778243904 | 16.11° C | 46% | 0 hPa | 0 mm | - | - | - |
| 1778243304 | 16.11° C | 44% | 0 hPa | 0 mm | - | - | - |
| 1778242704 | 16.11° C | 43% | 0 hPa | 0 mm | - | - | - |
| 1778242104 | 16.11° C | 48% | 0 hPa | 0 mm | - | - | - |
| 1778241504 | 16.11° C | 45% | 0 hPa | 0 mm | - | - | - |
| 1778240904 | 15° C | 46% | 0 hPa | 0 mm | - | - | - |
| 1778240284 | 15° C | 44% | 0 hPa | 0 mm | - | - | - |
| 1778239684 | 15° C | 46% | 0 hPa | 0 mm | - | - | - |
| 1778239064 | 15° C | 45% | 0 hPa | 0 mm | - | - | - |
| 1778238464 | 14.44° C | 45% | 0 hPa | 0 mm | - | - | - |
* Rain latest hour (hover to see other rain measurements)
** Current wind speed in m/s (hover to see current wind gust speed)